Tracking 19832 objects as of 25-Aug-2019
HD Live streaming from Space Station
objects crossing your sky now

CZ-4C DEB

Track CZ-4C DEB now!
10-day predictions


NORAD ID: 43628
Int'l Code: 2013-065F
Perigee: 716.3 km
Apogee: 1,076.8 km
Inclination: 100.5 °
Period: 102.8 minutes
Semi major axis: 7267 km
RCS: Unknown
Launch date: November 20, 2013
Source: People's Republic of China (PRC)
Launch site: Taiyaun Space Center, China (TSC)

Note: This is SATELLITE DEBRIS
aabbcc
Your satellite tracking list
Your tracking list is empty




NASA's NSSDC Master Catalog

Two Line Element Set (TLE):
1 43628U 13053E   19236.52540251 +.00002511 +00000-0 +13037-2 0  9995
2 43628 100.4825 091.3109 0248033 033.4250 328.2294 14.01268165051533
Source of the keplerian elements: AFSPC